[[{"header":{"parameterUnit":"m.s-1","parameterCategory":1,"la1":30.2991,"la2":30.254,"lo1":-89.0895,"lo2":-89.0444,"dy":0.0017,"dx":0.0017,"nx":28,"ny":28,"refTime":"2025-03-16T03:00:00:Z","depth":0,"parameterNumber":2,"parameterNumberName":"U-component_of_WINDS"},"data":[0,0,0,0,0,0,0,0,0,0,0,0,0,0,0,0,0,0,0,0,0,0,0,0,0,0,0,0,0,0,0,0,0,0,0,0,0,0,0,0,0,0,0,0,0,0,0,0,0,0,0,0,0,0,0,0,0,0,1.1714,1.1714,0,1.1735,1.1736,1.1736,1.1715,1.1715,1.1714,1.1713,1.1735,1.1736,1.1738,0,0,0,0,0,0,0,0,0,0,0,0,0,1.1657,1.1658,1.1714,1.1714,1.1714,1.1735,1.1736,1.1736,1.1715,1.1714,1.1714,1.1713,1.1735,1.1736,1.1738,0,0,0,0,0,0,0,0,0,0,0,0,0,1.168,1.1658,1.1714,1.1707,1.1706,1.1735,1.1736,1.1736,1.1716,1.1714,1.1713,1.1712,1.1734,1.1736,1.1738,1.1775,0,0,1.1744,1.1745,0,0,0,0,0,0,0,0,1.1679,1.1682,1.1708,1.1707,1.1707,1.1721,1.1723,1.1749,1.1716,1.1712,1.1713,1.1712,1.1732,1.1734,1.174,1.1776,1.1777,1.1744,1.1746,1.1747,1.1747,0,0,0,0,0,0,0,1.1677,1.1681,1.1722,1.1708,1.1708,1.1703,1.1705,1.1728,1.1728,1.1712,1.1711,1.1714,1.1731,1.1738,1.1741,1.1777,1.1744,1.1746,1.1747,1.1748,1.1846,1.1847,0,0,0,0,0,0,1.1676,1.168,1.1722,1.1723,1.169,1.1705,1.1707,1.1718,1.1728,1.1728,1.1715,1.1713,1.1736,1.1738,1.1741,1.1786,1.1746,1.1748,1.175,1.1844,1.1846,1.1847,0,0,0,0,0,0,1.1675,1.168,1.1721,1.1701,1.1706,1.1707,1.172,1.1719,1.1726,1.173,1.173,1.1722,1.1735,1.1739,1.1767,1.1786,1.1749,1.1751,1.1843,1.1845,1.1847,1.1875,0,0,0,0,0,0,1.1674,1.168,1.1694,1.1702,1.1707,1.1746,1.1721,1.172,1.173,1.1727,1.1737,1.1737,1.1734,1.1764,1.1769,1.1789,1.1753,1.1841,1.1844,1.1846,1.1872,1.1878,1.1882,0,0,0,0,0,1.1672,1.17,1.1694,1.17,1.1724,1.1747,1.175,1.1746,1.1731,1.1745,1.1748,1.1737,1.1784,1.1767,1.1773,1.1793,1.184,1.1843,1.1846,1.187,1.1877,1.1882,0,0,0,0,0,0,1.1694,1.1701,1.1695,1.1727,1.1736,1.1743,1.1761,1.1753,1.1766,1.1764,1.1758,1.176,1.1791,1.1795,1.1776,1.183,1.1809,1.1814,1.1826,1.1832,1.1837,1.1835,1.1754,0,0,0,0,0,1.1703,1.1721,1.1726,1.1754,1.1759,1.1759,1.1769,1.1765,1.1775,1.1779,1.1783,1.1793,1.181,1.1822,1.1837,1.1873,1.1875,1.189,1.1895,1.1899,1.1903,1.1923,1.193,1.1858,1.1858,1.1858,0,0,1.1721,1.1727,1.1739,1.1759,1.1766,1.1784,1.1763,1.1783,1.1797,1.1782,1.1809,1.1813,1.1824,1.1856,1.1871,1.1861,1.1923,1.1903,1.1906,1.1908,1.1927,1.1934,1.194,1.186,1.1859,1.1859,0,0,1.1764,1.177,1.1794,1.1802,1.1813,1.1813,1.1819,1.1828,1.183,1.1857,1.1846,1.1863,1.1893,1.1901,1.1909,1.1957,1.1948,1.1963,1.1989,1.2009,1.2014,1.2019,1.2037,1.2043,1.1966,1.1967,1.1967,0,1.1785,1.1812,1.1808,1.183,1.1839,1.1826,1.1851,1.1859,1.1875,1.1882,1.1871,1.1908,1.1914,1.1949,1.1961,1.1968,1.1975,1.1961,1.2014,1.2019,1.2023,1.204,1.2047,1.1968,1.1968,1.1968,1.1968,0,1.1838,1.1858,1.1876,1.1892,1.1904,1.1927,1.1926,1.1939,1.1934,1.1936,1.1965,1.1972,1.199,1.1998,1.1994,1.2033,1.2026,1.2015,1.1994,1.2032,1.2048,1.2054,1.1971,1.197,1.197,1.1969,0,0,1.1894,1.1908,1.1915,1.1923,1.1935,1.195,1.1973,1.1991,1.2002,1.2014,1.2033,1.2059,1.2049,1.2058,1.2055,1.2073,1.2111,1.2059,1.2059,1.2068,1.2155,1.2164,1.2171,1.2105,1.2106,1.2107,1.2155,0,1.1938,1.1978,1.1975,1.2013,1.2031,1.2021,1.2041,1.2051,1.2054,1.207,1.2073,1.2092,1.2076,1.2082,1.2099,1.2103,1.2128,1.2099,1.2124,1.2125,1.2121,1.2179,1.2188,1.2233,1.2161,1.2162,1.2162,0,1.1993,1.2007,1.2047,1.2057,1.2065,1.2083,1.21,1.2116,1.2127,1.2128,1.214,1.2134,1.2158,1.2137,1.2171,1.2152,1.2162,1.2166,1.2167,1.2169,1.2145,1.2183,1.2246,1.2253,1.2172,1.2171,1.217,0,1.203,1.2059,1.2087,1.2094,1.2107,1.212,1.2126,1.2137,1.2148,1.2162,1.217,1.2187,1.2197,1.2211,1.221,1.2195,1.2245,1.2224,1.2247,1.2247,1.2257,1.2256,1.2323,1.2264,1.2264,1.2264,1.2263,0,1.2078,1.2103,1.2104,1.2121,1.2149,1.2147,1.2174,1.2179,1.2189,1.2207,1.2199,1.2217,1.2215,1.2233,1.2233,1.2262,1.2266,1.2268,1.2267,1.2268,1.2268,1.2275,1.2271,1.2265,1.2265,1.2265,1.2264,0,1.2124,1.2126,1.2156,1.2166,1.2169,1.2189,1.2198,1.2215,1.2217,1.2241,1.2246,1.225,1.2271,1.2273,1.2296,1.2297,1.2331,1.2328,1.2327,1.2327,1.2349,1.2347,1.2422,1.2432,1.2367,1.2368,1.2368,0,1.2155,1.2174,1.2186,1.2198,1.2205,1.2224,1.2236,1.2234,1.2247,1.2263,1.2278,1.2298,1.2314,1.2348,1.2353,1.2372,1.2369,1.2394,1.2371,1.2372,1.2369,1.2368,1.237,1.2398,1.2399,1.2399,1.24,0,1.2209,1.2209,1.2226,1.2244,1.2258,1.2272,1.2284,1.2295,1.2295,1.231,1.2331,1.2344,1.2369,1.2389,1.2408,1.2415,1.2408,1.2407,1.2413,1.2414,1.2413,1.2415,1.2339,1.2405,1.2405,1.2404,1.2404,1.2404,1.2248,1.2265,1.2277,1.2296,1.2306,1.2319,1.2335,1.234,1.2358,1.2378,1.2376,1.24,1.2413,1.2437,1.2446,1.2465,1.2457,1.2466,1.2468,1.247,1.2473,1.2411,1.2469,1.2468,1.2468,1.2468,1.2468,0,1.2302,1.231,1.2327,1.2346,1.2362,1.2354,1.2368,1.2382,1.2403,1.2416,1.2432,1.2457,1.2478,1.2485,1.2505,1.2519,1.2517,1.2524,1.2523,1.2525,1.2479,1.2472,1.2526,1.2526,1.2526,1.2526,1.2526,1.2526,1.2332,1.236,1.2362,1.2396,1.2403,1.2426,1.2435,1.2447,1.2457,1.2486,1.2503,1.2508,1.2519,1.254,1.2558,1.256,1.2568,1.2577,1.2578,1.2534,1.2528,1.2523,1.2516,1.2579,1.2579,1.2622,1.2623,1.2623]},{"header":{"parameterUnit":"m.s-1","parameterCategory":1,"la1":30.2991,"la2":30.254,"lo1":-89.0895,"lo2":-89.0444,"dy":0.0017,"dx":0.0017,"nx":28,"ny":28,"refTime":"2025-03-16T03:00:00:Z","depth":0,"parameterNumber":3,"parameterNumberName":"V-component_of_WINDS"},"data":[0,0,0,0,0,0,0,0,0,0,0,0,0,0,0,0,0,0,0,0,0,0,0,0,0,0,0,0,0,0,0,0,0,0,0,0,0,0,0,0,0,0,0,0,0,0,0,0,0,0,0,0,0,0,0,0,0,0,-3.4974,-3.4975,0,-3.5154,-3.5156,-3.5158,-3.5181,-3.5179,-3.5177,-3.5176,-3.5359,-3.5365,-3.5371,0,0,0,0,0,0,0,0,0,0,0,0,0,-3.4647,-3.4653,-3.4973,-3.4976,-3.4978,-3.5154,-3.5156,-3.5159,-3.5181,-3.5179,-3.5177,-3.5175,-3.5357,-3.5364,-3.5372,0,0,0,0,0,0,0,0,0,0,0,0,0,-3.4804,-3.4655,-3.4973,-3.501,-3.5016,-3.5153,-3.5156,-3.5159,-3.5182,-3.5179,-3.5176,-3.5174,-3.5354,-3.5363,-3.5373,-3.5485,0,0,-3.5403,-3.5407,0,0,0,0,0,0,0,0,-3.4796,-3.4816,-3.5003,-3.5008,-3.5014,-3.5142,-3.5108,-3.5269,-3.5182,-3.5119,-3.5176,-3.5173,-3.5289,-3.5304,-3.5343,-3.5494,-3.5502,-3.5404,-3.541,-3.5414,-3.5417,0,0,0,0,0,0,0,-3.4785,-3.4809,-3.5045,-3.5005,-3.5012,-3.5018,-3.5037,-3.5139,-3.5216,-3.5124,-3.5126,-3.5147,-3.5291,-3.5334,-3.5348,-3.5505,-3.5403,-3.5412,-3.5418,-3.5422,-3.5758,-3.5761,0,0,0,0,0,0,-3.4767,-3.48,-3.5039,-3.505,-3.4896,-3.5026,-3.5048,-3.5104,-3.5215,-3.5229,-3.5149,-3.5148,-3.5318,-3.5336,-3.5354,-3.5494,-3.5414,-3.5423,-3.5428,-3.5755,-3.5759,-3.5762,0,0,0,0,0,0,-3.476,-3.4788,-3.5032,-3.4926,-3.4957,-3.5034,-3.5097,-3.5109,-3.5151,-3.5234,-3.5248,-3.5178,-3.5317,-3.534,-3.5453,-3.55,-3.5427,-3.5436,-3.5751,-3.5756,-3.5761,-3.5773,0,0,0,0,0,0,-3.475,-3.4785,-3.4829,-3.4926,-3.4963,-3.5128,-3.51,-3.5114,-3.5168,-3.5168,-3.5265,-3.5279,-3.5317,-3.5438,-3.5463,-3.5512,-3.5444,-3.5748,-3.5754,-3.5759,-3.5769,-3.5778,-3.5785,0,0,0,0,0,-3.4739,-3.4825,-3.4831,-3.486,-3.5019,-3.5131,-3.5151,-3.5194,-3.5172,-3.5216,-3.527,-3.5276,-3.5492,-3.545,-3.5477,-3.5531,-3.5745,-3.5752,-3.5759,-3.5765,-3.5776,-3.5785,0,0,0,0,0,0,-3.4729,-3.4838,-3.4846,-3.4966,-3.5039,-3.5134,-3.5191,-3.5204,-3.5284,-3.528,-3.5329,-3.5351,-3.5461,-3.5507,-3.5459,-3.5646,-3.5616,-3.5629,-3.5612,-3.5623,-3.5631,-3.5617,-3.5452,0,0,0,0,0,-3.4742,-3.4824,-3.4914,-3.5011,-3.5047,-3.5113,-3.5163,-3.519,-3.5267,-3.5298,-3.536,-3.5434,-3.5519,-3.5573,-3.5656,-3.5776,-3.5798,-3.5827,-3.5835,-3.5841,-3.5851,-3.5919,-3.5933,-3.5785,-3.5785,-3.5785,0,0,-3.4767,-3.4836,-3.4885,-3.5011,-3.5071,-3.5155,-3.5139,-3.5228,-3.5291,-3.5311,-3.5422,-3.547,-3.5556,-3.5673,-3.5728,-3.5715,-3.5897,-3.585,-3.5854,-3.5861,-3.5928,-3.5942,-3.5954,-3.579,-3.5789,-3.5788,0,0,-3.4856,-3.4917,-3.5005,-3.5065,-3.5156,-3.52,-3.5221,-3.5315,-3.5348,-3.546,-3.5478,-3.5553,-3.5698,-3.5759,-3.5809,-3.5923,-3.5932,-3.5949,-3.5991,-3.6057,-3.6069,-3.6079,-3.612,-3.6134,-3.5959,-3.5959,-3.5959,0,-3.4876,-3.5003,-3.5048,-3.5138,-3.5193,-3.5217,-3.5307,-3.5363,-3.5476,-3.5513,-3.5498,-3.5681,-3.5741,-3.5873,-3.5901,-3.5941,-3.5967,-3.5937,-3.6063,-3.6074,-3.6085,-3.6125,-3.614,-3.5961,-3.596,-3.596,-3.596,0,-3.5023,-3.5111,-3.5172,-3.5281,-3.5343,-3.5432,-3.5491,-3.5549,-3.5571,-3.5616,-3.573,-3.5803,-3.5901,-3.5935,-3.5956,-3.6071,-3.606,-3.6053,-3.6024,-3.61,-3.6138,-3.6154,-3.5963,-3.5962,-3.5962,-3.5961,0,0,-3.5109,-3.5245,-3.5266,-3.5317,-3.542,-3.5489,-3.5579,-3.5676,-3.5725,-3.5803,-3.588,-3.6003,-3.5998,-3.6055,-3.6084,-3.6142,-3.6228,-3.6128,-3.6131,-3.6144,-3.6359,-3.6363,-3.638,-3.6235,-3.6238,-3.6241,-3.6352,0,-3.521,-3.5372,-3.5417,-3.5554,-3.5637,-3.5662,-3.5741,-3.5813,-3.5858,-3.5934,-3.5984,-3.6071,-3.6058,-3.6092,-3.6151,-3.6205,-3.6272,-3.6198,-3.6307,-3.631,-3.6284,-3.64,-3.6404,-3.6506,-3.6367,-3.637,-3.6372,0,-3.5349,-3.543,-3.5576,-3.567,-3.5707,-3.5777,-3.587,-3.5943,-3.6026,-3.6055,-3.6119,-3.6143,-3.6239,-3.6206,-3.6338,-3.6287,-3.6334,-3.6368,-3.6373,-3.6384,-3.6345,-3.6414,-3.6539,-3.6554,-3.6396,-3.6394,-3.6392,0,-3.5397,-3.5543,-3.565,-3.5693,-3.5805,-3.5854,-3.5903,-3.5983,-3.6039,-3.6121,-3.6158,-3.6249,-3.6299,-3.6369,-3.6418,-3.6389,-3.6546,-3.6517,-3.6573,-3.6572,-3.6604,-3.6601,-3.6738,-3.6635,-3.6635,-3.6635,-3.6634,0,-3.5504,-3.5592,-3.5673,-3.5739,-3.5839,-3.5889,-3.5987,-3.6037,-3.6108,-3.6184,-3.6212,-3.6282,-3.6342,-3.6421,-3.6459,-3.6563,-3.6586,-3.6612,-3.6621,-3.6609,-3.6606,-3.664,-3.6634,-3.6639,-3.6638,-3.6637,-3.6636,0,-3.5574,-3.5632,-3.575,-3.5847,-3.5874,-3.5943,-3.6027,-3.6092,-3.6139,-3.6234,-3.6259,-3.6333,-3.6427,-3.6483,-3.6602,-3.6628,-3.6743,-3.6749,-3.6715,-3.6719,-3.6772,-3.6766,-3.6935,-3.696,-3.6842,-3.6843,-3.6844,0,-3.5638,-3.5707,-3.5812,-3.5866,-3.5916,-3.6001,-3.6059,-3.6112,-3.6171,-3.6271,-3.6324,-3.642,-3.65,-3.6649,-3.6713,-3.6804,-3.6813,-3.6866,-3.6826,-3.6813,-3.6813,-3.6809,-3.6816,-3.6872,-3.6873,-3.6874,-3.6875,0,-3.5746,-3.5772,-3.5854,-3.5948,-3.6016,-3.6092,-3.6168,-3.621,-3.6276,-3.6341,-3.6438,-3.65,-3.6622,-3.6718,-3.6815,-3.6865,-3.6881,-3.6887,-3.6905,-3.6893,-3.687,-3.6883,-3.6733,-3.6882,-3.6881,-3.6881,-3.6881,-3.688,-3.5815,-3.5878,-3.5962,-3.6054,-3.6117,-3.6187,-3.6253,-3.6309,-3.6391,-3.6495,-3.6522,-3.6624,-3.6707,-3.6839,-3.6892,-3.6973,-3.6964,-3.699,-3.6996,-3.7002,-3.7003,-3.6858,-3.6991,-3.6991,-3.699,-3.699,-3.699,0,-3.5924,-3.598,-3.6064,-3.617,-3.6242,-3.6252,-3.6337,-3.6396,-3.6486,-3.6562,-3.6641,-3.6753,-3.6846,-3.6919,-3.7014,-3.7065,-3.7075,-3.7088,-3.7085,-3.7096,-3.7005,-3.698,-3.7079,-3.7079,-3.7079,-3.7079,-3.7079,-3.7079,-3.5989,-3.6096,-3.6132,-3.6271,-3.6327,-3.6428,-3.6475,-3.654,-3.6602,-3.6726,-3.6804,-3.6851,-3.6926,-3.7028,-3.7114,-3.7133,-3.7166,-3.7178,-3.7198,-3.7112,-3.7102,-3.7093,-3.707,-3.7185,-3.7186,-3.7283,-3.7283,-3.7284]}]]